Orbital Elements at Epoch 2459200.5 (2020-Dec-17.0) TDB
Reference: JPL 18 (heliocentric ecliptic J2000)
Element | Value | Uncertainty (1-sigma) | Units |
e | .09629679887408374 | 3.3104e-08 | |
a | 2.219797921997181 | 7.877e-09 | au |
q | 2.006038487961509 | 7.2445e-08 | au |
i | 7.077739686842254 | 4.1868e-06 | deg |
node | 278.9956541720488 | 3.6473e-05 | deg |
peri | 129.5276158185962 | 4.7874e-05 | deg |
M | 170.3812342125654 | 3.1476e-05 | deg |
tp | 2458628.774126438589 (2019-May-25.27412644) | 0.00010443 | TDB |
period | 1208.004598824117 3.31 | 6.4299e-06 1.76e-08 | d yr |
n | .2980121105088733 | 1.5862e-09 | deg/d |
Q | 2.433557356032852 | 8.6355e-09 | au |
|
| | Orbit Determination Parameters
Additional Information
|